Stations météo

réclame
Mon MeteoGroup
Volkel, Pays-Bas (6375): Température de l'air & dewpoint: 15.07.2019 17:00:00 - 21.07.2019 17:00:00 (CEST)Volkel, Pays-Bas (6375): Température de l'air 5cm: 15.07.2019 17:00:00 - 21.07.2019 17:00:00 (CEST)Volkel, Pays-Bas (6375): Vitesse du vent & gusts: 15.07.2019 17:00:00 - 21.07.2019 17:00:00 (CEST)Volkel, Pays-Bas (6375): Direction du vent: 15.07.2019 17:00:00 - 21.07.2019 17:00:00 (CEST)Volkel, Pays-Bas (6375): reduced air pressure: 15.07.2019 17:00:00 - 21.07.2019 17:00:00 (CEST)Volkel, Pays-Bas (6375): visibility: 15.07.2019 17:00:00 - 21.07.2019 17:00:00 (CEST)Volkel, Pays-Bas (6375): Quantités de précipitations: 15.07.2019 17:00:00 - 21.07.2019 17:00:00 (CEST)
Date & Time tt [°C] td [°C] tt 5cm [°C] ff [km/h] ff [knt] fx [km/h] fx [knt] dd ppp [hPa] vv [km] rr [mm]
21.07.2019 17:00:00 22,9 12,3 23,8 11 6 25 14 WNW 1022,1 10 0,0
21.07.2019 16:00:00 24,3 12,9 25,2 9 5 25 14 W 1021,8 10 0,0
21.07.2019 15:00:00 23,0 12,4 24,6 15 8 25 14 W 1021,8 10 0,0
21.07.2019 14:00:00 23,6 13,6 25,0 13 7 25 14 WNW 1021,5 10 0,0
21.07.2019 13:00:00 22,9 13,9 24,1 13 7 29 16 WNW 1021,1 10 0,0
21.07.2019 12:00:00 21,8 13,6 23,4 11 6 25 14 W 1020,8 10 0,0
21.07.2019 11:00:00 21,6 14,6 21,2 13 7 25 14 W 1020,2 10 0,0
21.07.2019 10:00:00 20,1 14,9 21,8 11 6 22 12 WSW 1019,6 10 0,0
21.07.2019 09:00:00 18,2 15,2 18,9 16 9 22 12 SW 1019,1 10 0,0
21.07.2019 08:00:00 16,7 14,5 17,1 13 7 18 10 WSW 1018,4 10 0,0
21.07.2019 07:00:00 15,1 13,9 14,5 13 7 18 10 SW 1017,8 10 0,0
21.07.2019 06:00:00 13,6 12,7 12,8 13 7 14 8 SW 1017,0 10 0,0
21.07.2019 05:00:00 14,2 12,8 13,2 11 6 18 10 SW 1016,3 10 0,0
21.07.2019 04:00:00 14,3 12,9 13,1 11 6 14 8 SW 1015,8 10 0,0
21.07.2019 03:00:00 15,3 13,3 13,6 9 5 14 8 SW 1015,2 10 0,0
21.07.2019 02:00:00 16,7 13,3 15,8 13 7 25 14 WSW 1014,9 10 0,0
21.07.2019 01:00:00 18,4 13,6 17,0 13 7 22 12 WSW 1014,7 10 0,0
21.07.2019 00:00:00 18,1 14,4 16,7 11 6 22 12 WSW 1014,4 10 0,0
20.07.2019 23:00:00 19,0 14,9 17,7 9 5 18 10 WSW 1013,6 10 0,0
20.07.2019 22:00:00 20,3 16,0 19,3 9 5 18 10 W 1012,6 10 0,0
20.07.2019 21:00:00 21,7 17,2 21,5 11 6 25 14 WNW 1011,5 10 0,0
20.07.2019 20:00:00 23,1 17,7 23,6 11 6 29 16 W 1010,7 10 0,0
20.07.2019 19:00:00 24,7 15,4 25,2 13 7 29 16 W 1010,3 10 0,0
20.07.2019 18:00:00 24,0 17,8 24,6 13 7 36 19 WSW 1009,9 10 0,0
20.07.2019 17:00:00 22,8 18,5 23,7 8 4 14 8 SSW 1009,5 10 0,0
20.07.2019 16:00:00 18,8 17,6 19,2 8 4 54 29 E 1010,2 10 5,0
20.07.2019 15:00:00 24,9 16,0 25,7 5 3 11 6 NNE 1010,0 10 0,0
20.07.2019 14:00:00 23,2 14,7 25,7 8 4 14 8 ENE 1010,2 10 0,0
20.07.2019 13:00:00 22,8 14,2 24,5 8 4 25 14 N 1010,4 10 0,0
20.07.2019 12:00:00 22,6 13,9 23,7 8 4 22 12 WSW 1010,1 10 0,0
20.07.2019 11:00:00 23,6 13,9 24,8 15 8 32 18 WSW 1010,2 10 0,0
20.07.2019 10:00:00 23,8 15,6 23,7 15 8 29 16 WSW 1010,5 10 0,0
20.07.2019 09:00:00 22,3 15,4 22,9 18 10 29 16 S 1009,6 10 0,0
20.07.2019 08:00:00 20,9 15,0 21,0 15 8 25 14 S 1009,5 10 0,0
20.07.2019 07:00:00 18,4 14,3 17,8 9 5 18 10 SSE 1009,9 10 0,0
20.07.2019 06:00:00 17,8 13,9 16,7 9 5 18 10 SSE 1010,2 10 0,0
20.07.2019 05:00:00 17,9 13,7 16,9 11 6 18 10 SSE 1010,5 10 0,0
20.07.2019 04:00:00 18,4 13,5 17,3 9 5 14 8 SSE 1011,0 10 0,0
20.07.2019 03:00:00 18,7 12,8 17,4 9 5 14 8 SSE 1011,5 10 0,0
20.07.2019 02:00:00 19,2 12,5 18,3 11 6 18 10 SSE 1011,9 10 0,0
20.07.2019 01:00:00 18,9 12,2 16,1 8 4 11 6 SSE 1012,4 10 0,0
20.07.2019 00:00:00 18,1 13,2 14,2 0 0 4 2 N 1012,7 10 0,0
19.07.2019 23:00:00 19,0 12,7 15,6 0 0 4 2 N 1012,9 10 0,0
19.07.2019 22:00:00 21,7 12,5 20,8 4 2 11 6 S 1013,1 10 0,0
19.07.2019 21:00:00 23,2 11,7 22,9 11 6 18 10 SW 1013,1 10 0,0
19.07.2019 20:00:00 24,0 11,1 24,0 13 7 22 12 SW 1013,0 10 0,0
19.07.2019 19:00:00 24,8 11,4 25,5 16 9 25 14 SW 1012,9 10 0,0
19.07.2019 18:00:00 25,2 11,9 26,8 13 7 22 12 SSW 1013,0 10 0,0
19.07.2019 17:00:00 25,3 11,7 27,3 13 7 29 16 SW 1013,3 10 0,0
19.07.2019 16:00:00 24,7 12,3 26,6 11 6 22 12 SW 1013,7 10 0,0
19.07.2019 15:00:00 24,5 11,8 26,5 11 6 22 12 SW 1013,9 10 0,0
19.07.2019 14:00:00 23,6 11,0 27,0 8 4 22 12 - 1013,8 10 0,0
19.07.2019 13:00:00 23,2 12,8 26,5 13 7 22 12 - 1014,0 10 0,0
19.07.2019 12:00:00 22,2 14,2 25,9 13 7 22 12 SW 1013,9 10 0,0
19.07.2019 11:00:00 21,0 13,7 24,3 13 7 22 12 - 1014,2 10 0,0
19.07.2019 10:00:00 20,2 14,1 22,7 11 6 22 12 SSW 1014,0 10 0,0
19.07.2019 09:00:00 19,1 14,2 20,5 11 6 18 10 SW 1013,9 10 0,0
19.07.2019 08:00:00 18,2 14,8 17,4 8 4 14 8 WSW 1013,6 10 0,0
19.07.2019 07:00:00 16,4 14,4 16,0 9 5 11 6 WSW 1013,2 10 0,0
19.07.2019 06:00:00 15,1 14,0 14,1 5 3 7 4 SW 1012,9 10 0,0
19.07.2019 05:00:00 15,1 13,8 14,1 8 4 11 6 SW 1012,7 10 0,0
19.07.2019 04:00:00 15,5 14,1 14,3 8 4 11 6 SW 1012,8 10 0,0
19.07.2019 03:00:00 16,1 14,3 15,1 9 5 11 6 SW 1012,7 10 0,0
19.07.2019 02:00:00 16,6 14,3 15,4 8 4 11 6 SW 1012,5 10 0,0
19.07.2019 01:00:00 17,3 14,6 16,7 5 3 7 4 SW 1012,5 10 0,0
19.07.2019 00:00:00 18,5 14,3 18,0 8 4 25 14 WSW 1012,3 10 0,0
18.07.2019 23:00:00 19,1 14,2 18,6 18 10 32 18 WSW 1012,3 10 0,0
18.07.2019 22:00:00 18,5 15,1 17,7 13 7 22 12 SW 1011,9 10 0,0
18.07.2019 21:00:00 19,4 15,2 18,6 13 7 32 18 WSW 1011,4 10 0,0
18.07.2019 20:00:00 22,0 14,3 22,1 13 7 22 12 SW 1010,9 10 0,0
18.07.2019 19:00:00 21,9 13,9 22,0 13 7 25 14 SW 1011,0 10 0,0
18.07.2019 18:00:00 22,3 13,3 22,9 18 10 29 16 WSW 1011,1 10 0,0
18.07.2019 17:00:00 22,2 12,8 23,1 18 10 32 18 SW 1011,2 10 0,0
18.07.2019 16:00:00 23,9 11,7 26,3 21 11 32 18 WSW 1011,1 10 0,0
18.07.2019 15:00:00 22,9 12,1 24,7 21 11 29 16 WSW 1011,0 10 0,0
18.07.2019 14:00:00 24,0 11,5 26,2 21 11 36 19 SSW 1010,8 10 0,0
18.07.2019 13:00:00 24,3 10,2 26,9 22 12 36 19 WSW 1010,9 10 0,0
18.07.2019 12:00:00 23,7 10,6 26,8 15 8 25 14 SW 1010,8 10 0,0
18.07.2019 11:00:00 22,4 13,2 24,6 13 7 29 16 SSW 1010,9 10 0,0
18.07.2019 10:00:00 20,0 12,6 20,9 13 7 22 12 S 1011,0 10 0,0
18.07.2019 09:00:00 19,1 12,7 19,4 11 6 18 10 SSE 1011,1 8 0,0
18.07.2019 08:00:00 16,6 12,8 16,5 8 4 14 8 SSE 1011,2 8 0,0
18.07.2019 07:00:00 15,4 12,3 14,9 9 5 14 8 ESE 1011,4 7 0,0
18.07.2019 06:00:00 14,8 12,1 13,5 8 4 14 8 SE 1011,5 8 0,0
18.07.2019 05:00:00 15,2 12,0 14,1 9 5 14 8 SE 1011,6 8 0,0
18.07.2019 04:00:00 15,5 12,0 14,5 9 5 14 8 SE 1012,0 10 0,0
18.07.2019 03:00:00 14,8 12,0 11,7 5 3 11 6 ESE 1012,4 10 0,0
18.07.2019 02:00:00 13,9 12,6 11,1 5 3 7 4 ENE 1012,8 10 0,0
18.07.2019 01:00:00 13,9 12,8 11,0 2 1 7 4 - 1013,0 10 0,0
18.07.2019 00:00:00 15,1 12,9 11,7 0 0 4 2 N 1013,1 10 0,0
17.07.2019 23:00:00 16,3 13,1 12,6 2 1 4 2 ESE 1013,2 10 0,0
17.07.2019 22:00:00 18,1 12,9 15,0 0 0 4 2 N 1013,3 10 0,0
17.07.2019 21:00:00 19,9 13,1 18,4 4 2 11 6 ENE 1013,3 10 0,0
17.07.2019 20:00:00 22,3 12,3 22,6 9 5 14 8 E 1013,2 10 0,0
17.07.2019 19:00:00 22,6 12,4 23,1 13 7 22 12 ENE 1013,5 10 0,0
17.07.2019 18:00:00 23,5 11,7 24,5 8 4 11 6 - 1013,7 10 0,0
17.07.2019 17:00:00 23,5 10,6 26,1 8 4 14 8 WSW 1014,3 10 0,0
17.07.2019 16:00:00 22,3 11,5 23,4 4 2 11 6 - 1014,9 10 0,0
17.07.2019 15:00:00 23,3 12,0 27,6 4 2 14 8 - 1015,1 10 0,0
17.07.2019 14:00:00 21,3 12,3 23,1 4 2 14 8 - 1015,8 10 0,0
17.07.2019 13:00:00 20,0 12,4 - 5 3 14 8 - 1016,1 10 0,0
17.07.2019 12:00:00 20,2 12,4 22,8 5 3 14 8 NE 1016,2 10 0,0
17.07.2019 11:00:00 20,3 12,8 22,7 5 3 14 8 - 1016,3 10 0,0
17.07.2019 10:00:00 19,6 12,8 22,0 5 3 11 6 - 1016,5 10 0,0
17.07.2019 09:00:00 17,5 13,1 18,8 5 3 7 4 SSE 1016,5 10 0,0
17.07.2019 08:00:00 14,6 12,7 14,9 4 2 4 2 - 1016,4 9 0,0
17.07.2019 07:00:00 12,3 12,3 11,9 0 0 4 2 N 1016,6 8 0,0
17.07.2019 06:00:00 10,9 10,9 10,3 2 1 4 2 N 1016,8 7 0,0
17.07.2019 05:00:00 10,0 9,9 6,6 0 0 4 2 N 1016,7 7 0,0
17.07.2019 04:00:00 9,8 9,8 5,1 0 0 0 0 N 1016,9 10 0,0
17.07.2019 03:00:00 10,0 10,0 4,8 0 0 0 0 N 1017,3 5 0,0
17.07.2019 02:00:00 10,3 10,1 5,6 0 0 4 2 N 1017,5 10 0,0
17.07.2019 01:00:00 11,2 11,1 5,9 0 0 0 0 N 1017,6 10 0,0
17.07.2019 00:00:00 11,9 11,6 7,0 0 0 0 0 N 1017,7 10 0,0
16.07.2019 23:00:00 13,3 11,9 8,3 0 0 4 2 N 1017,9 10 0,0
16.07.2019 22:00:00 15,2 12,0 12,5 4 2 7 4 N 1017,8 10 0,0
16.07.2019 21:00:00 17,7 12,1 17,8 8 4 14 8 N 1017,8 10 0,0
16.07.2019 20:00:00 18,6 11,9 19,1 9 5 18 10 N 1017,8 10 0,0
16.07.2019 19:00:00 19,7 11,2 20,8 8 4 14 8 NNW 1017,8 10 0,0
16.07.2019 18:00:00 19,7 10,9 21,3 8 4 18 10 - 1018,0 10 0,0
16.07.2019 17:00:00 20,3 10,9 22,6 5 3 18 10 NNW 1018,4 10 0,0
16.07.2019 16:00:00 19,7 10,8 21,4 5 3 22 12 N 1018,8 10 0,0
16.07.2019 15:00:00 18,8 10,5 21,3 8 4 29 16 - 1018,9 10 0,0
16.07.2019 14:00:00 17,7 10,5 19,6 8 4 14 8 WNW 1019,2 10 0,0
16.07.2019 13:00:00 17,1 10,5 18,9 8 4 14 8 W 1019,5 10 0,0
16.07.2019 12:00:00 16,0 10,6 17,1 8 4 14 8 WNW 1019,7 10 0,0
16.07.2019 11:00:00 15,7 10,5 - 8 4 14 8 WNW 1019,8 10 0,0
16.07.2019 10:00:00 15,2 10,9 15,8 5 3 11 6 W 1019,7 10 0,0
16.07.2019 09:00:00 14,8 10,8 14,8 5 3 14 8 W 1019,8 10 0,0
16.07.2019 08:00:00 14,3 10,6 14,0 4 2 7 4 - 1019,7 10 0,0
16.07.2019 07:00:00 13,5 11,2 13,1 4 2 11 6 - 1019,6 10 0,0
16.07.2019 06:00:00 13,2 11,3 12,7 4 2 7 4 - 1019,5 10 0,0
16.07.2019 05:00:00 12,9 11,2 12,4 2 1 7 4 - 1019,4 10 0,0
16.07.2019 04:00:00 12,6 11,1 11,9 2 1 11 6 - 1019,7 10 0,0
16.07.2019 03:00:00 12,1 10,9 10,1 5 3 11 6 WNW 1019,9 10 0,0
16.07.2019 02:00:00 11,3 10,2 8,1 5 3 7 4 W 1020,1 10 0,0
16.07.2019 01:00:00 10,6 10,1 7,5 4 2 7 4 - 1020,2 10 0,0
16.07.2019 00:00:00 12,0 10,8 8,3 2 1 11 6 NW 1020,1 10 0,0
15.07.2019 23:00:00 13,4 10,9 11,5 5 3 14 8 NNW 1020,0 10 0,0
15.07.2019 22:00:00 15,2 11,3 14,3 5 3 18 10 N 1020,0 10 0,0
15.07.2019 21:00:00 17,2 12,2 17,3 5 3 18 10 WNW 1019,6 10 0,0
15.07.2019 20:00:00 17,7 12,2 18,1 9 5 18 10 NW 1019,6 10 0,0
15.07.2019 19:00:00 17,9 11,3 18,5 11 6 22 12 WNW 1019,6 10 0,0
15.07.2019 18:00:00 18,9 11,2 19,3 9 5 22 12 NW 1020,0 10 0,0
15.07.2019 17:00:00 18,8 10,0 20,2 15 8 25 14 NNW 1020,2 10 0,0

tt = Température de l'air
td = dewpoint
tt 5cm = Température de l'air 5cm
ff = Vitesse du vent
fx = gusts
dd = Direction du vent
ppp = reduced air pressure
vv = visibility
rr = Quantités de précipitations

stations d'obs. à proximité